This is the latest recevied weather packets stored in our database for station/object K0NV. If no packets are shown the sender has not sent any weather packets the latest 10 day(s).
| Time | Temp. | Humidity | Pressure | Rain* | Wind** | Luminosity | Snow |
|---|---|---|---|---|---|---|---|
| 1777918179 | 24.44° C | 54% | 1008.3 hPa | 0 mm | - | 750 W/m² | - |
| 1777917878 | 24.44° C | 55% | 1008.1 hPa | 0 mm | - | 734 W/m² | - |
| 1777917576 | 24.44° C | 54% | 1008.1 hPa | 0 mm | - | 736 W/m² | - |
| 1777917273 | 24.44° C | 55% | 1008.2 hPa | 0 mm | - | 757 W/m² | - |
| 1777916971 | 24.44° C | 53% | 1008.3 hPa | 0 mm | - | 762 W/m² | - |
| 1777916667 | 24.44° C | 55% | 1008.5 hPa | 0 mm | - | 760 W/m² | - |
| 1777916365 | 23.89° C | 55% | 1008.3 hPa | 0 mm | - | 757 W/m² | - |
| 1777916061 | 23.89° C | 55% | 1008.5 hPa | 0 mm | - | 768 W/m² | - |
| 1777915759 | 24.44° C | 56% | 1008.7 hPa | 0 mm | - | 774 W/m² | - |
| 1777915455 | 23.89° C | 55% | 1008.3 hPa | 0 mm | - | 773 W/m² | - |
| 1777915151 | 23.89° C | 55% | 1008.5 hPa | 0 mm | - | 766 W/m² | - |
| 1777914849 | 23.89° C | 55% | 1008.6 hPa | 0 mm | - | 768 W/m² | - |
| 1777914545 | 23.89° C | 56% | 1008.5 hPa | 0 mm | - | 770 W/m² | - |
| 1777914242 | 23.89° C | 55% | 1008.3 hPa | 0 mm | - | 781 W/m² | - |
| 1777913938 | 23.89° C | 57% | 1008.4 hPa | 0 mm | - | 796 W/m² | - |
| 1777913635 | 23.89° C | 56% | 1008.6 hPa | 0 mm | - | 801 W/m² | - |
| 1777913332 | 23.89° C | 56% | 1008.5 hPa | 0 mm | - | 797 W/m² | - |
| 1777913029 | 23.89° C | 56% | 1008.7 hPa | 0 mm | - | 792 W/m² | - |
| 1777912724 | 23.33° C | 55% | 1008.7 hPa | 0 mm | - | 807 W/m² | - |
| 1777912421 | 23.33° C | 56% | 1008.3 hPa | 0 mm | - | 818 W/m² | - |
| 1777912117 | 22.78° C | 56% | 1008.6 hPa | 0 mm | - | 819 W/m² | - |
| 1777911813 | 23.33° C | 57% | 1008.9 hPa | 0 mm | - | 811 W/m² | - |
| 1777911510 | 23.33° C | 57% | 1009 hPa | 0 mm | - | 822 W/m² | - |
| 1777911207 | 22.78° C | 57% | 1008.8 hPa | 0 mm | - | 824 W/m² | - |
| 1777910904 | 23.33° C | 58% | 1008.7 hPa | 0 mm | - | 833 W/m² | - |
* Rain latest hour (hover to see other rain measurements)
** Current wind speed in m/s (hover to see current wind gust speed)